Погода в Пробуждении

Россия / Саратовская область     51°26′01″N   46°09′06″E
темп.,
°C
ветер,
м/с
пор.,
м/с
влажн.,
%
обл.,
%
осадки,
мм/ч
давл.,
гПа
погр.,
м
25 февраля, чт
чт2501:00−22зсз2282100 0.0 103921
04:00−22зюз1280100 0.0 103823
07:00−20юз2383100 0.0 103688
10:00−18ююз4782100 0.0 1033298
13:00−14ююз71094100 0.6 1030488
16:00−11ююз81394100 2.1 1026721
19:00−9ююз81394100 2.7 1021653
22:00−8ююз61194100 4.9 1018502
26 февраля, пт
пт2601:00−5ююз5896100 1.3 1015261
04:00−2ююз3597100 1.9 1014127
07:00+1зсз3599100 0.4 1013103
10:00+1зсз3798100 0.4 1013179
13:00+1зюз3499100 0.0 1013104
16:00+1юз46100100 0.2 1012141
19:00+2юз51099100 1.0 1009212
22:00+2зюз61499100 1.7 1007372
27 февраля, сб
сб2701:00+2зюз61396100 0.2 1005293
04:00+2з51295100 0.3 1005343
07:00+1зюз4888100 0.0 1004225
10:00+1зюз51090100 0.0 1004354
13:00+1зюз5998100 0.0 1004309
16:00+1зюз5999100 0.1 1003341
19:000зюз499799 0.1 1003268
22:000зюз5109798 0.2 1002352
28 февраля, вс
вс2801:000зюз5109399 0.1 1003304
04:00−8сз6118697 0.1 1004371
07:00−11зсз5128741 0.0 1006439
10:00−11сз6118844 0.0 1009543
13:00−10сз698693 0.0 1011571
16:00−9ссз698696 0.0 1013596
19:00−11сз5108787 0.0 1015304
22:00−13ссз598865 0.0 1018243
1 марта, пн
пн101:00−15ссз488923 0.0 1019198
04:00−16ссз479012 0.0 1021172
07:00−17ссз48890 0.0 1023192
10:00−16ссз47880 0.0 1024326
13:00−13ссз358612 0.0 1025417
16:00−11ссз368528 0.0 1025466
19:00−14зсз33890 0.0 102529
22:00−14зюз33900 0.0 102539